Orbital elements:
2023 QN                                                  Earth MOID = 0.3543 AU
Epoch 2023 Sept. 13.0 TT = JDT 2460200.5                Veres                   
M 335.13223              (2000.0)            P               Q                  
n   0.35865545     Peri.  233.97097     +0.80722537     -0.52244686             
a   1.9619342      Node   153.80784     +0.48317089     +0.85216227             
e   0.3686671      Incl.   38.48169     -0.33901783     -0.02947442             
P   2.75           H   18.96          G   0.15           U   0                  
Residuals in seconds of arc
120730 F51  0.1+  0.0     230818 L51  0.3+  0.2-    230822 196  0.1-  0.0
120730 F51  0.0   0.1-    230818 L51  0.1+  0.2-    230823 K87  0.3-  0.2+
120811 F51  0.1+  0.0     230818 L51  0.2-  0.2-    230823 K87  0.1+  0.2+
120811 F51  0.1+  0.0     230818 M49  0.1-  0.2+    230823 K87  0.2+  0.1+
120811 F51  0.1+  0.0     230818 M49  0.3-  0.1+    230823 L51  0.1+  0.1-
120811 F51  0.0   0.2-    230818 M49  0.3-  0.0     230823 L51  0.2+  0.0
120821 F51  0.0   0.1-    230818 033  0.1-  0.2+    230823 L51  0.0   0.0
120821 F51  0.1+  0.1+    230818 033  0.0   0.4+    230824 U52  0.5-  0.6+
120821 F51  0.1+  0.1+    230818 033  0.1+  0.2+    230824 U52  0.2+  0.3+
150623 F51  0.3-  0.1+    230818 033  0.0   0.0     230824 U52  0.9+  1.1-
150623 F51  0.2-  0.1-    230818 M21  0.2-  0.1-    230824 H36  0.2+  0.4+
150623 F51  0.1+  0.0     230818 B72  0.3-  0.2+    230824 H36  0.5+  0.1+
150623 F51  0.4-  0.2+    230818 B72  0.2+  0.1+    230824 H36  0.3+  0.1-
151130 F51  0.0   0.1+    230818 B72  0.3-  0.1-    230825 H21  0.2+  0.3+
151130 F51  0.2+  0.2-    230818 M21  0.1+  0.1-    230825 H21  0.2+  0.2+
160225 F51  0.1+  0.1-    230818 C95  0.2+  0.1+    230825 H21  0.2-  0.4-
160225 F51  0.2+  0.0     230818 M45  0.0   0.1+    230825 M45  0.1-  0.0
160304 F51  0.1-  0.0     230818 C95  0.0   0.1-    230825 M45  0.2-  0.3+
160304 F51  0.2-  0.1-    230818 M45  0.0   0.2-    230825 M45  0.1+  0.1+
160304 F51  0.1-  0.0     230818 K87  0.3-  0.2-    230825 203  0.2-  0.2-
160305 F51  0.0   0.0     230818 C95  0.0   0.1-    230825 203 (0.2-  1.0-)
160305 F51  0.0   0.1+    230818 595  0.1-  0.1+    230826 U52  1.1-  0.1-
160325 F51  0.1+  0.1-    230818 M45  0.1-  0.1+    230826 U52  1.2+  1.0+
170529 F51  0.3-  0.1-    230818 204  0.2+  0.1+    230826 M45  0.1+  0.1+
181231 F51  0.2-  0.1-    230818 595  0.5-  0.2-    230826 M45  0.3+  0.1-
190115 F51  0.0   0.0     230818 K87  0.1+  0.3-    230826 M45  0.3-  0.2-
190115 F51  0.1+  0.1-    230818 L65  0.2+  0.2-    230901 M45  0.2+  0.4+
190116 F52  0.4+  0.0     230818 204  0.1+  0.1-    230901 M45  0.1-  0.2+
190116 F52  0.4-  0.1+    230818 595  0.5-  0.4+    230902 K74  0.0   0.3-
190204 F51  0.3-  0.3+    230818 204  0.1-  0.0     230902 K74  0.2-  0.1-
190408 F51  0.1+  0.0     230818 K87  0.4+  0.3-    230902 K74  0.3+  0.2-
200714 F52  0.2-  0.0     230818 L65 (0.7+  1.0-)   230902 K74  0.1+  0.2+
200714 F52  0.1-  0.1-    230818 K83  0.0   0.5+    230902 204  0.3+  0.1-
200723 F52  0.0   0.4-    230818 K83  0.0   0.2+    230902 204  0.0   0.2-
200723 F52  0.1-  0.0     230818 L34  0.1-  0.1+    230903 F51  0.0   0.0
200810 F52  0.2-  0.4-    230818 K83  0.3-  0.2-    230903 F51  0.0   0.0
200816 F52  0.0   0.0     230818 L34  0.2+  0.1+    230903 F51  0.0   0.1+
200816 F52  0.3+  0.1-    230818 L34  0.4+  0.5-    230903 F51  0.0   0.0
200905 F52  0.0   0.2-    230819 L34  0.4-  0.5-    230903 F51  0.0   0.0
200905 F52  0.2+  0.3+    230819 H21  0.3-  0.6+    230903 F51  0.1-  0.1-
230817 L51  0.1+  0.2+    230819 H21  0.3-  0.6+    230904 H21  0.0   0.1+
230817 L51  0.1-  0.1+    230819 H21  0.0   0.5+    230904 H21  0.0   0.0
230817 L51  0.0   0.4-    230819 H21  0.2-  0.5+    230904 H21  0.2+  0.1+
230817 C40  0.3-  0.5-    230819 J22  0.1-  0.7-    230904 H21  0.6+  0.1+
230817 C40  0.3-  0.1-    230819 J22  0.5+  0.3-    230904 H21  0.5+  0.1+
230817 C40  0.3+  0.2-    230819 J22  0.6+  0.1-    230904 K87  0.3+  0.0
230817 C40  0.4-  0.5+    230819 595  0.4+  0.3+    230904 K87  0.6-  0.2+
230817 C40  0.1-  0.1+    230819 G15  1.0+  1.8+    230904 K87  0.4-  0.6+
230817 L01  0.3-  0.1+    230819 595  0.1+  0.7+    230904 K74  0.7-  0.3-
230817 L01  0.1+  0.1-    230819 G15  0.7-  0.3+    230904 K74  0.3+  0.0
230817 L01  0.1+  0.2-    230819 G02  0.4-  2.1+    230905 U52  0.3+  0.6-
230817 I93  0.0   0.4+    230819 G02  0.3-  1.7+    230905 U52  0.3+  0.1-
230817 L01  0.4-  0.2+    230819 595  0.5+  0.7+    230905 U52  0.1-  0.3+
230817 C40  0.3+  0.0     230819 G02  0.6+  1.9+    230905 K74  0.0   0.1-
230817 I93  0.1-  0.2+    230819 246  1.4-  0.3+    230905 K74  0.4+  0.0
230817 L51  0.1-  0.3+    230819 246  0.2-  0.3-    230905 K74  0.1-  0.1-
230817 I93  0.1+  0.0     230819 246 (7.4+  0.6-)   230906 U52  0.1-  0.7-
230817 L51  0.3+  0.1-    230819 246  0.9+  0.9-    230906 U52  0.6-  0.2-
230817 L51  0.1-  0.1+    230819 246  0.5+  1.0-    230906 U52  0.2-  0.4-
230817 104  0.2+  0.1-    230819 246  0.2+  0.3-    230906 K87  0.4-  0.2+
230817 104  0.3+  0.4-    230819 246  0.0   0.2-    230906 K87  0.3+  0.3+
230817 J57  0.3+  0.0     230819 246  0.2+  0.7-    230906 M22  0.3-  0.2-
230817 J57  0.1-  0.2-    230819 246  0.0   0.7-    230906 M22  0.3+  0.1+
230817 J57  0.2-  0.3+    230819 246  0.0   0.3-    230906 M22  0.1+  0.3+
230817 033  0.2-  0.2+    230819 246  0.3-  0.0     230906 M22  0.2+  0.4-
230817 033  0.1+  0.0     230819 M45  0.2+  0.3+    230907 K74  0.0   0.0
230817 033  0.0   0.3-    230819 M45  0.1-  0.2+    230907 K74  0.0   0.0
230818 J22  0.3-  0.0     230819 M45  0.1-  0.2+    230907 K74  0.3-  0.2+
230818 J22  0.1-  0.1+    230820 Z28  0.1+  0.0     230908 F52  0.0   0.1+
230818 J22  0.0   0.3+    230820 Z28  0.1+  0.0     230908 F52  0.0   0.1+
230818 H21  0.0   0.4+    230820 Z28  0.0   0.1-    230908 F52  0.1+  0.2+
230818 H21  0.2+  0.4+    230820 K74  0.3+  0.5+    230908 F52  0.0   0.1+
230818 H36  0.1-  0.1-    230820 K74  0.1+  0.3+    230909 U52  0.2+  0.1-
230818 H21  0.3-  0.6+    230820 K74  0.1+  0.1+    230909 U52  0.5+  0.5+
230818 H21  0.0   0.7+    230820 K74  0.0   0.7+    230909 U52  0.5+  0.4-
230818 H21  0.1+  0.4+    230820 K74  0.0   0.3+    230910 U52  1.0-  0.9-
230818 H36  0.2-  0.3+    230820 K87  0.2+  0.0     230910 U52  0.3+  1.0-
230818 H36  0.2-  0.3+    230820 K87  0.1-  0.1-    230911 U52  1.0-  1.6-
230818 W57  0.3+  0.6+    230820 K87  0.3-  0.5+    230911 U52  0.8+  1.7-
230818 W57  0.2-  0.7-    230821 K87  0.1+  0.4-    230914 F51  0.0   0.0
230818 654  0.1+  0.1-    230821 196  0.3-  0.2+    230914 F51  0.0   0.1+
230818 654  0.0   0.1+    230821 K87  0.5-  0.7-    230914 F51  0.0   0.1+
230818 673  0.0   0.6-    230821 K87  0.2-  0.6-    231105 807  0.1+  0.2-
230818 673  0.0   0.4+    230821 130  0.0   0.0     231105 807  0.5-  0.1-
230818 673  0.2-  0.2-    230821 130  0.1-  0.3-    231105 807  0.1-  0.2-
230818 673  0.5-  0.4-    230821 130  0.3-  0.1+    231231 807  0.2-  0.3-
230818 654  0.1+  0.0     230821 196  0.1+  0.2+    231231 807  0.2-  0.6-
230818 654  0.1+  0.0     230822 196  0.2-  0.1-    231231 807 (0.8-  1.2+)

Ephemeris:
2023 QN                  a,e,i = 1.96, 0.37, 38                  q = 1.2386
Date    TT    R. A. (2000) Decl.     Delta      r    Elong.  Phase     V
2023 12 29    01 06 34.2 -48 28 57   1.0458  1.2872    78.7    48.5    21.4
...
2024 01 13    01 58 29.9 -41 54 41   1.0846  1.3305    79.9    46.7    21.5
...
2024 01 21    02 24 21.3 -37 45 27   1.1079  1.3579    80.7    45.7    21.6
...
2024 01 27    02 42 59.3 -34 25 13   1.1281  1.3802    81.3    44.8    21.6
2024 01 28    02 46 02.1 -33 50 57   1.1318  1.3841    81.4    44.7    21.6
2024 01 29    02 49 04.0 -33 16 28   1.1356  1.3879    81.4    44.6    21.7
...
2024 02 04    03 06 56.2 -29 45 42   1.1604  1.4119    81.8    43.7    21.7
...
2024 02 12    03 30 01.3 -24 58 35   1.2001  1.4455    82.1    42.6    21.8
...
2024 02 27    04 11 26.9 -16 07 26   1.2987  1.5124    81.5    40.4    22.0

A. U. Tomatic                (C) Copyright 2024 MPC           M.P.E.C. 2024-B148





More information about the Iaude mailing list